Home   Weather   Nzérékoré   Past weeks

Flag for Guinea Past Weather in Nzérékoré, Guinea — Yesterday and Last 2 Weeks

Now
73 °F

Passing clouds.


Feels Like: 70 °F
Forecast: 69 / 92 °F
Wind: 6 mph from Northeast

Location: Roberts Field

Current Time: Jan 22, 2017 at 6:26:38 am

Latest Report: Jan 22, 2017 at 5:30 am


Visibility: 4 mi

Pressure: 29.83 "Hg

Humidity: 94%

Dew Point: 72 °F

Location of NzérékoréLocation

Past Weather in Nzérékoré — Graph

°F

Nzérékoré Temperature Yesterday

Maximum temperature yesterday: 88 °F (at 12:30 pm)
Minimum temperature yesterday: 77 °F (at 1:00 am)
Average temperature yesterday: 81 °F

High & Low Weather Summary for the Past Weeks

 TemperatureHumidityPressure
High95 °F (Jan 14, 3:30 pm)100% (Jan 7, 5:00 am)29.92 "Hg (Jan 7, 5:00 am)
Low68 °F (Jan 14, 6:00 am)31% (Jan 14, 12:30 pm)29.71 "Hg (Jan 14, 3:30 pm)
Average81 °F83%29.83 "Hg
* Reported Jan 7 5:00 am — Jan 22 5:00 am, Nzérékoré, Weather by CustomWeather, © 2017

Note: Actual official high and low records may vary slightly from our data, if they occured in-between our weather recording intervals... More about our weather records

Advertising

Nzérékoré Weather History for the Previous 24 Hours

Scroll right to see more
 ConditionsComfort  
Time TempWeatherWind HumidityBarometerVisibility
5:00 am
Sun, Jan 22
75 °FPassing clouds.5 mph94%29.83 "Hg4 mi
4:30 am75 °FPassing clouds.5 mph94%29.83 "Hg4 mi
4:00 am75 °FPassing clouds.3 mph94%29.83 "Hg4 mi
3:30 am75 °FPassing clouds.5 mph94%29.83 "Hg4 mi
3:00 am75 °FPassing clouds.No wind94%29.86 "Hg4 mi
2:30 am75 °FPassing clouds.6 mph94%29.86 "Hg4 mi
2:00 am75 °FPassing clouds.No wind94%29.86 "Hg4 mi
1:30 am75 °FPassing clouds.No wind94%29.86 "Hg4 mi
12:30 am75 °FPassing clouds.No wind94%29.89 "Hg4 mi
12:00 am77 °FPassing clouds.No wind94%29.89 "Hg5 mi
11:00 pm
Sat, Jan 21
77 °FPassing clouds.No wind94%29.89 "Hg5 mi
10:30 pm79 °FPassing clouds.3 mph94%29.89 "Hg5 mi
10:00 pm79 °FPassing clouds.3 mph94%29.89 "Hg5 mi
9:30 pm79 °FPassing clouds.No wind94%29.89 "Hg5 mi
9:00 pm79 °FPassing clouds.No wind94%29.89 "HgN/A
8:30 pm79 °FPassing clouds.No wind94%29.86 "HgN/A
8:00 pm79 °FPassing clouds.No wind94%29.83 "HgN/A
7:00 pm81 °FBroken clouds.3 mph89%29.83 "HgN/A
6:30 pm82 °FBroken clouds.3 mph84%29.83 "HgN/A
6:00 pm82 °FBroken clouds.3 mph84%29.80 "HgN/A
5:30 pm82 °FBroken clouds.5 mph79%29.80 "HgN/A
5:00 pm82 °FBroken clouds.6 mph79%29.80 "HgN/A
4:30 pm82 °FBroken clouds.5 mph79%29.80 "HgN/A
4:00 pm81 °FThunderstorms. Broken clouds.8 mph84%29.80 "HgN/A
3:30 pm81 °FThunderstorms. Broken clouds.5 mph84%29.80 "HgN/A
3:00 pm81 °FThunderstorms. Partly sunny.5 mph84%29.80 "HgN/A
2:30 pm81 °FThunderstorms. Partly sunny.8 mph84%29.80 "HgN/A
2:00 pm81 °FThunderstorms. Partly sunny.7 mph84%29.83 "Hg5 mi
1:30 pm86 °FThunderstorms. Partly sunny.6 mph75%29.83 "Hg5 mi
1:00 pm88 °FThunderstorms. Partly sunny.5 mph66%29.83 "HgN/A
12:30 pm88 °FPartly sunny.5 mph66%29.86 "HgN/A
12:00 pm86 °FPartly sunny.3 mph75%29.86 "HgN/A
11:00 am86 °FPartly sunny.10 mph75%29.86 "HgN/A
10:30 am84 °FPartly sunny.6 mph84%29.89 "HgN/A
9:30 am82 °FScattered clouds.6 mph79%29.89 "Hg6 mi
9:00 am81 °FScattered clouds.5 mph84%29.89 "Hg4 mi
8:30 am77 °FPartly sunny.3 mph94%29.86 "Hg4 mi
8:00 am77 °FPartly sunny.3 mph94%29.86 "Hg4 mi
7:30 am77 °FPassing clouds.6 mph94%29.86 "Hg4 mi
7:00 am77 °FPassing clouds.5 mph94%29.83 "Hg4 mi
6:30 am77 °FPassing clouds.3 mph94%29.83 "Hg5 mi
6:00 am77 °FPassing clouds.No wind94%29.83 "Hg5 mi
Weather by CustomWeather, © 2017

See weather overviewHow to use our weather pages